Regional Weather Roundup
Issued by NWS

Home | Current Version | Previous Version | Text Only | Print | Product List | Glossary Off
Versions: 1 2 3 4 5 6 7 8 9 10 11 12 13 14 15 16 17 18 19 20 21 22 23 24 25 26 27 28 29 30 31 32 33 34 35 36 37 38 39 40 41 42 43 44 45 46 47 48 49 50

000
ASUS43 KLOT 060212
RWRIL

ILLINOIS REGIONAL WEATHER ROUNDUP
NATIONAL WEATHER SERVICE CHICAGO/ROMEOVILLE IL
800 PM CST MON DEC 05 2016

NOTE: "FAIR" INDICATES FEW OR NO CLOUDS BELOW 12,000 FEET WITH NO
SIGNIFICANT WEATHER AND/OR OBSTRUCTIONS TO VISIBILITY.

* THESE STATIONS ARE NOT UNDER NWS QUALITY CONTROL. THEY ALSO MAY NOT
  REPORT WEATHER SUCH AS PRECIPITATION OR FOG.

ILZ001-002-007-009-015-016-024-060300-
NORTHWEST ILLINOIS

CITY           SKY/WX    TMP DP  RH WIND       PRES   REMARKS
MOLINE         CLOUDY    35  31  85 E13       29.90S WCI  26
STERLING*      CLOUDY    31  30  96 SE8       29.95R WCI  23
SAVANNA*       CLOUDY    32  31  96 SE13      29.92F FOG     WCI  22
$$

ILZ003-004-008-010-011-017-018-060300-
NORTH CENTRAL ILLINOIS

CITY           SKY/WX    TMP DP  RH WIND       PRES   REMARKS
ROCKFORD       CLOUDY    31  29  92 SE16      29.97R FOG     WCI  20
FREEPORT*      CLOUDY    29  29  99 SE10      29.96R FOG     WCI  20
ROCHELLE*      CLOUDY    30  30  99 S14       29.96R FOG     WCI  19
DE KALB*       CLOUDY    30  30  99 S10       29.97R FOG     WCI  21
$$

ILZ005-006-012>014-019>023-060300-
NORTHEAST ILLINOIS

CITY           SKY/WX    TMP DP  RH WIND       PRES   REMARKS
CHICAGO-OHARE  CLOUDY    32  29  88 SE9       29.97F FOG     WCI  24
CHICAGO-MIDWAY CLOUDY    33  28  81 SE8       29.98F WCI  26
AURORA         CLOUDY    32  29  88 SE14      29.98S FOG     WCI  22
LANSING*       CLOUDY    32  32 100 SE6       29.99S WCI  26
JOLIET*        CLOUDY    33  32  98 SE6       29.99R FOG     WCI  27
WAUKEGAN       CLOUDY    33  32  96 SE3       29.95F FOG
DUPAGE AIRPORT CLOUDY    31  28  89 S9        29.96S FOG     WCI  23
KANKAKEE*      CLEAR     31  30  96 CALM      29.97S FOG
WHEELING       CLOUDY    32  30  92 SE8       29.99F WCI  25
MORRIS*        CLOUDY    32  31  96 E6        29.97S FOG     WCI  26
ROMEOVILLE*    CLOUDY    31  31 100 SE6       29.99R FOG     WCI  25
NORTHERLY ISL    N/A     34  32  92 SE9         N/A  WCI  27
$$

LMZ740>746-060300-
SOUTHERN LAKE MICHIGAN

STATION/POSITION SKY/WX   TEMP    WIND        PRES    VSBY  WAVE
                          AIR SEA DIR/SP/G                  HT/PER
                          (F)     (DEG/KT/KT) (MB)    (MI)  (FT/S)
HARRISON CRIB              35     140/ 12/ 13   N/A
BURNHAM HARBOR             34     120/  9/ 10   N/A
CALUMET HARBOR             33     130/  5/  8 1014.7F
BURNS HARBOR               33     120/  7/ 14 1016.3
$$

ILZ025>027-034>036-040-047-049-050-058-095>099-060300-
WEST-CENTRAL ILLINOIS

CITY           SKY/WX    TMP DP  RH WIND       PRES   REMARKS
QUINCY         CLOUDY    35  34  96 SE12      29.84S FOG     WCI  27
GALESBURG*     CLOUDY    34  32  93 E7        29.89S WCI  28
MACOMB*        CLOUDY    36  35  96 E13       29.88F WCI  27
JACKSONVILLE*  PTCLDY    32  31  98 E9        29.87F FOG     WCI  24
PITTSFIELD*    CLEAR     35  34  96 E6        29.86F WCI  29
$$

ILZ028>032-037-038-041>044-048-051>054-059>061-060300-
CENTRAL ILLINOIS

CITY           SKY/WX    TMP DP  RH WIND       PRES   REMARKS
PONTIAC        CLOUDY    33  33 100 NE7       29.95F FOG     WCI  26
BLOOMINGTON    CLEAR     30  29  96 NE7       29.91F FOG     WCI  23
DECATUR        CLOUDY    32  30  92 E6        29.91S FOG     WCI  26
PEORIA         CLOUDY    36  34  92 E8        29.92F WCI  30
LACON*         CLOUDY    33  32  96 E6        29.94S WCI  28
LINCOLN*       CLEAR     33  33 100 E3        29.91S FOG
SPRINGFIELD    CLOUDY    35  33  92 E7        29.89F WCI  29
TAYLORVILLE    PTCLDY    35  33  94 E5        29.88F WCI  31
$$

ILZ033-039-045-046-055>057-062-063-060300-
EAST-CENTRAL ILLINOIS

CITY           SKY/WX    TMP DP  RH WIND       PRES   REMARKS
CHAMPAIGN      CLOUDY    34  31  88 NE8       29.91F WCI  27
RANTOUL*       CLEAR     34  33  97 E9        29.91F WCI  27
MATTOON        PTCLDY    34  30  85 SE8       29.89F WCI  27
PARIS*         PTCLDY    35  33  90 E8        29.92F WCI  29
$$

ILZ079-100>102-060300-
SOUTHWEST ILLINOIS

CITY           SKY/WX    TMP DP  RH WIND       PRES   REMARKS
ALTON          CLOUDY    37  34  87 SE14      29.87F WCI  29
BELLEVILLE     CLOUDY    38  37  96 E7        29.85F WCI  33
CAHOKIA*       MOCLDY    39  33  79 E7        29.86F WCI  34
SPARTA*        PTCLDY    37  35  91 E8        29.85F WCI  31
$$

ILZ064>066-069>071-074>076-080>082-084>086-088>090-092>094-060300-
SOUTH-CENTRAL ILLINOIS

CITY           SKY/WX    TMP DP  RH WIND       PRES   REMARKS
CARBONDALE     CLOUDY    40  36  86 E10       29.85F
CAIRO*         CLOUDY    41  37  87 E8        29.84S
EFFINGHAM*     CLOUDY    36  35  99 E3        29.91F
CENTRALIA*     CLOUDY    38  36  92 CALM      29.87S
SALEM*         PTCLDY    37  34  89 E3        29.88F
METROPOLIS*    CLOUDY    41  37  86 NE3       29.84F
$$

ILZ067-068-072-073-078-083-087-091-060300-
SOUTHEAST ILLINOIS

CITY           SKY/WX    TMP DP  RH WIND       PRES   REMARKS
LAWRENCEVILLE  CLOUDY    37  33  85 E8        29.91F WCI  31
FLORA*         CLOUDY    36  34  92 E5        29.90F WCI  32
FAIRFIELD*     CLOUDY    36  34  94 CALM      29.87F
HARRISBURG*    CLOUDY    40  37  87 E7        29.86F
ROBINSON*      PTCLDY    33  31  94 E6        29.92F WCI  27
CARMI*         CLOUDY    39  37  91 E5        29.88F
$$

ABBREVIATIONS USED IN REMARKS
   TC - TEMPERATURE IN CELSIUS
  WCI - WIND CHILL INDEX
   HX - HEAT INDEX
  VSB - VISIBILITY
$$




USA.gov is the U.S. government's official web portal to all federal, state and local government web resources and services.